Regional Weather Roundup
Issued by NWS

Home | Current Version | Previous Version | Text Only | Print | Product List | Glossary Off
Versions: 1 2 3 4 5 6 7 8 9 10 11 12 13 14 15 16 17 18 19 20 21 22 23 24 25 26 27 28 29 30 31 32 33 34 35 36 37 38 39 40 41 42 43 44 45 46 47 48 49

278
ASUS43 KMPX 221001
RWRMN
WEATHER ROUNDUP FOR MINNESOTA
NATIONAL WEATHER SERVICE TWIN CITIES/CHANHASSEN MN
500 AM CDT FRI MAY 22 2015


NOTE: "FAIR" INDICATES FEW OR NO CLOUDS BELOW 12,000 FEET WITH NO
SIGNIFICANT WEATHER AND/OR OBSTRUCTIONS TO VISIBILITY. N/A MEANS
CURRENT SKY AND/OR WEATHER CONDITIONS ARE NOT AVAILABLE.

MNZ060>063-068>070-221100-
   Twin Cities Metro

CITY           SKY/WX    TMP DP  RH WIND       PRES   REMARKS
TWIN CITIES    CLEAR     49  37  63 CALM      30.16R
ST PAUL        CLEAR     49  37  63 W3        30.16R
CRYSTAL        CLEAR     43  36  76 CALM      30.15R
BLAINE         CLEAR     43  39  87 CALM      30.15S
LAKEVILLE      CLEAR     45  36  70 CALM      30.15S
EDEN PRAIRIE   CLEAR     49  38  65 N3        30.15R
SOUTH ST PAUL  CLEAR     47  36  63 CALM      30.15R
LAKE ELMO      FAIR      41  36  81 CALM      30.16S
$$
MNZ001>005-007-008-013>017-022>024-027-028-221100-
   Northwest Minnesota

CITY           SKY/WX    TMP DP  RH WIND       PRES   REMARKS
BEMIDJI        CLEAR     34  32  93 CALM      30.16R
HALLOCK        CLEAR     41  37  87 SE8       30.14S
ROSEAU         CLEAR     37  34  87 CALM      30.15S
WARROAD        CLEAR     39  36  87 W5        30.16R
THIEF RVR FALL CLEAR     41  34  75 CALM      30.17R
CROOKSTON      CLEAR     45  36  70 CALM      30.17R
FOSSTON        CLEAR     34  30  86 CALM      30.17R
DETROIT LAKES  CLEAR     45  41  87 CALM      30.17S
MOORHEAD       CLEAR     45  39  81 CALM      30.17S
PARK RAPIDS    CLEAR     39  35  86 CALM      30.16R
MAHNOMEN       FAIR      41  38  91 CALM      30.16R
$$
MNZ006-009>011-018-025>026-221100-
   North Central Minnesota

CITY           SKY/WX    TMP DP  RH WIND       PRES   REMARKS
BAUDETTE       CLEAR     37  34  89 CALM      30.15R
FLAG ISLAND    CLEAR     46  41  81 CALM      30.13S
INTL FALLS     CLEAR     30  29  96 CALM      30.15R
WASKISH        CLEAR     37  36  93 CALM      30.16R
BIG FORK       CLEAR     30  30 100 CALM      30.16R
LONGVILLE      CLEAR     34  34 100 CALM      30.16R
GRAND RAPIDS   CLEAR     36  30  80 CALM      30.16R
CRANE LAKE     CLEAR     27  27 100 CALM      30.18R
ORR            CLEAR     30  28  93 CALM      30.13R
COOK           CLEAR     30  28  93 CALM      30.16R
WALKER         FAIR      36  35  94 CALM      30.15S
$$
MNZ012-019>021-037-221100-
   Northeast Minnesota

CITY           SKY/WX    TMP DP  RH WIND       PRES   REMARKS
DULUTH         CLEAR     37  31  78 CALM      30.16R
ELY            CLEAR     30  28  93 CALM      30.16R
HIBBING        CLEAR     31  29  92 CALM      30.15S
EVELETH        CLEAR     30  30 100 CALM      30.17R
DULUTH HARBOR  CLEAR     45  37  76 CALM      30.17R
TWO HARBORS    CLEAR     37  32  81 NW3       30.15R
SILVER BAY     CLEAR     32  28  86 CALM      30.15R
GRAND MARAIS     N/A     33  27  78 N6        30.17R WCI  28
G MARAIS ARPRT CLEAR     28  21  74 CALM      30.16R
$$
MNZ029>031-032-039>041-046>048-054>057-064-221100-
   West Central Minnesota

CITY           SKY/WX    TMP DP  RH WIND       PRES   REMARKS
FERGUS FALLS   CLEAR     46  37  71 NE5       30.17S
WHEATON        CLEAR     43  37  81 CALM      30.19R
MORRIS         CLEAR     45  39  81 NW3       30.16R
ALEXANDRIA     CLEAR     41  39  93 NE3       30.17R
ELBOW LAKE     FAIR      44  39  82 CALM      30.16S
WADENA         CLEAR     37  36  93 CALM      30.16S
GLENWOOD       CLEAR     46  37  71 NE3       30.17R
APPLETON       CLEAR     45  39  81 CALM      30.16S
BENSON         CLEAR     43  39  87 CALM      30.17R
ORTONVILLE     CLEAR     46  39  76 NW3       30.16S
MADISON        CLEAR     43  36  75 W6        30.17R
WILLMAR        FAIR      45  39  81 CALM      30.17S
$$
MNZ033>034-036-042>043-049>051-058-059-221100-
   Central Minnesota

CITY           SKY/WX    TMP DP  RH WIND       PRES   REMARKS
ST CLOUD       CLEAR     38  37  97 CALM      30.16R
SAUK CENTRE    FAIR      40  39  95 CALM      30.17R
PAYNESVILLE    CLEAR     36  36  98 CALM      30.17S
AITKIN         HAZE      36  30  80 CALM      30.15R VSB 3/4
PINE RIVER     CLEAR     36  34  93 CALM      30.20R
BRAINERD       CLEAR     35  34  96 CALM      30.17R
STAPLES        CLEAR     37  36  93 CALM      30.17R
LONG PRAIRIE   FAIR      39  36  87 CALM      30.17S
LITTLE FALLS   CLEAR     37  36  93 CALM      30.17R
LITCHFIELD     CLEAR     45  43  93 CALM      30.17R
BUFFALO        CLEAR     43  38  83 CALM      30.17R
MAPLE LAKE     CLEAR     42  41  96 CALM      30.17S
$$
MNZ037-044-045-052-053-221100-
   East Central Minnesota

CITY           SKY/WX    TMP DP  RH WIND       PRES   REMARKS
PRINCETON      CLEAR     39  37  93 CALM      30.17R
MORA           CLEAR     36  32  87 CALM      30.18R
CAMBRIDGE      FAIR      41  32  70 CALM      30.15R
RUSH CITY      CLEAR     38  34  84 CALM      30.17R
MOOSE LAKE     CLEAR     34  32  93 CALM      30.15R
HINCKLEY       FAIR      34  34 100 CALM      30.16R
CLOQUET        CLEAR     34  30  86 NW5       30.16R WCI  30
MCGREGOR       CLEAR     36  34  93 CALM      30.17R
$$
MNZ071>073-080-081-089-090-097-098-221100-
   Southwest Minnesota

CITY           SKY/WX    TMP DP  RH WIND       PRES   REMARKS
MONTEVIDEO     CLEAR     46  36  66 CALM      30.17S
GRANITE FALLS  CLEAR     42  35  75 CALM      30.18S
CANBY          CLEAR     46  37  71 SW8       30.19R
MARSHALL       CLEAR     45  32  61 W9        30.17R
REDWOOD FALLS  CLEAR     46  37  71 W5        30.16R
OLIVIA         CLEAR     45  34  65 NE3       30.16R
PIPESTONE      CLEAR     43  36  75 SW1       30.19R
WINDOM         CLEAR     45  34  65 CALM      30.18R
WORTHINGTON    CLEAR     45  30  57 NW3       30.19S
JACKSON        CLEAR     45  34  65 W6        30.19R
TRACY          CLEAR     50  35  56 SW8       30.18R
SLAYTON        CLEAR     48  33  56 CALM      30.20R
$$
MNZ065>067-074>077-082>085-091>093-221100-
   South Central Minnesota

CITY           SKY/WX    TMP DP  RH WIND       PRES   REMARKS
MANKATO        CLEAR     46  36  66 CALM      30.16R
NEW ULM        CLEAR     43  36  75 W3        30.16R
ST JAMES       CLEAR     46  34  61 CALM      30.17S
FAIRMONT       CLEAR     48  30  49 NW5       30.17R
GLENCOE        CLEAR     46  40  81 CALM      30.15S
FARIBAULT      CLEAR     41  39  93 CALM      30.15R
OWATONNA       CLEAR     41  37  87 CALM      30.15R
WASECA         CLEAR     41  34  75 CALM      30.17R
ALBERT LEA     CLEAR     43  37  81 CALM      30.15R
$$
MNZ078>079-086>088-094>096-221100-
   Southeast Minnesota

CITY           SKY/WX    TMP DP  RH WIND       PRES   REMARKS
ROCHESTER      CLEAR     47  33  58 NW8       30.15R
RED WING       CLEAR     43  39  87 NW5       30.14R
STANTON        CLEAR     40  35  84 CALM      30.14R
DODGE CENTER   PTCLDY    52  34  50 NW6       30.14S
WINONA         CLEAR     43  37  81 CALM      30.14R
AUSTIN         CLEAR     43  37  81 CALM      30.15R
PRESTON        CLEAR     48  33  55 NW6       30.14R
$$
ABBREVIATIONS USED IN REMARKS
   TC - TEMPERATURES IN CELSIUS
  WCI - WIND CHILL INDEX
   HX - HEAT INDEX
  VSB - VISIBILITY
$$



USA.gov is the U.S. government's official web portal to all federal, state and local government web resources and services.